Location: ?????????
(41.2393°N, 22.9479°E)
Time: 12:39:40
(UTC+00:00)

SKYMED 2 - Pass Details

Date: 17 November 2025
Orbit: 621 x 623 km, 97.9° (Epoch: 06 December)

Event Time Altitude Azimuth Distance (km) Brightness Sun altitude
Exits shadow 16:07:44 - 19° (NNE) 2,877 6.6 -11.5°
Reaches altitude 10° 16:09:57 10° 26° (NNE) 1,998 5.8 -11.9°
Maximum altitude 16:14:06 44° 99° (E) 866 3.9 -12.6°
Drops below altitude 10° 16:18:13 10° 171° (S) 1,983 6.2 -13.4°
Sets 16:20:29 0° 178° (S) 2,884 7.1 -13.8°
